Lid_Strength_Index
-0 -0 0 3 11 12 15 12 9 10 10 6 6 7 8 7 9 13 2 1 0 0 -0 -1 -2 -2 -1 -1 -1 -1 -1 -1 -1 -1 -1 -1 -1 -1 -1 -1 -1 -1 -1 -1 -1 -1 -1 -1 -1
-0 1 2 7 13 16 15 10 11 9 7 6 6 7 8 9 5 4 3 1 -0 -0 -0 -0 -1 -2 -1 -1 -1 -1 -1 -1 -1 -1 -1 -1 -1 -1 -1 -1 -1 -1 -1 -1 -1 -1 -1 -1 -1
0 1 7 10 13 16 15 10 9 7 6 6 7 6 7 8 4 4 1 0 0 -0 -0 -0 -1 -1 -1 -1 -1 -1 -1 -1 -2 -1 -1 -1 -1 -1 -1 -1 -1 -1 -1 -1 -1 -1 -1 -1 -1
2 4 6 12 14 11 11 9 8 8 7 6 6 9 5 3 4 2 1 0 0 0 -0 -1 -1 -1 -1 -1 -1 -1 -1 -1 -2 -2 -1 -1 -1 -1 -1 -1 -1 -1 -1 -1 -1 -1 -1 -1 -1
3 6 12 13 13 10 9 7 7 8 8 7 6 9 8 3 1 1 1 0 1 0 -0 -0 -2 -1 -1 -1 -1 -1 -1 -1 -1 -1 -2 -1 -1 -1 -1 -1 -1 -1 -1 -1 -1 -1 -1 -1 -1
7 7 13 15 12 9 8 7 7 8 7 7 7 8 7 2 2 1 1 1 0 0 -0 -0 -1 -1 -1 -1 -1 -1 -1 -1 -1 -1 -1 -1 -1 -1 -1 -1 -1 -1 -1 -1 -1 -1 -1 -1 -1
8 10 12 12 12 10 8 6 8 8 8 8 5 9 7 4 2 1 1 0 0 -0 -0 -0 -0 -1 -1 -1 -1 -1 -1 -1 -1 -1 -1 -1 -1 -1 -1 -1 -1 -1 -1 -1 -1 -1 -1 -1 -1
6 8 12 11 13 11 7 7 6 7 8 4 4 9 9 4 2 1 1 1 1 0 0 0 0 0 -0 -0 -1 -1 -1 -1 -1 -1 -1 -1 -1 -1 -1 -1 -1 -1 -1 -1 -1 -1 -1 -1 -1
4 11 13 12 11 10 7 8 6 4 6 5 4 5 4 2 2 2 2 2 1 1 0 0 -0 0 0 0 -1 -1 -1 -1 -1 -1 -2 -2 -1 -0 -1 -1 -1 -1 -1 -1 -1 -1 -1 -1 -1
8 11 11 8 8 9 7 7 7 7 7 7 6 4 3 3 3 4 4 4 3 2 1 1 0 0 0 -1 -0 0 -0 -0 -0 -0 -1 -0 1 1 -0 -1 -1 -1 -2 -1 -1 -1 -1 -1 -1
7 11 8 7 6 6 7 7 5 8 9 7 7 6 4 4 4 4 3 3 3 2 1 0 0 0 1 -0 1 1 1 1 0 -0 -0 1 2 0 -1 -0 -0 -0 -0 -1 -1 -1 -1 -0 -1
9 7 6 6 6 6 7 6 7 7 7 5 5 4 4 5 4 4 4 3 2 2 1 1 0 1 1 0 0 1 1 1 1 0 0 3 3 1 -1 -1 -0 -1 -1 -1 -1 -1 -0 -1 -1
8 7 6 6 6 6 6 7 7 7 5 4 4 4 5 4 4 3 3 2 2 2 1 1 0 1 0 1 -0 0 0 0 0 0 -0 1 2 1 -0 -0 -0 -1 -1 -1 0 -0 -0 -1 -1
7 7 7 6 6 6 7 7 7 6 5 5 5 5 5 4 4 3 3 3 2 2 2 1 1 0 0 0 0 0 1 0 -0 -0 -0 0 1 1 1 1 -0 -0 -1 -1 -0 -0 -0 -0 -1
7 9 8 7 7 7 6 9 9 6 5 6 6 5 5 4 3 4 3 3 2 2 1 1 1 0 1 0 0 0 -0 0 -0 -0 -0 -0 1 1 1 1 1 0 -0 -1 -0 -0 -1 -0 -0
9 9 12 8 7 6 8 13 8 6 6 7 6 6 5 4 4 3 2 2 2 2 2 1 0 0 1 0 0 -0 -0 -0 -0 -0 -0 -0 1 1 1 1 1 0 0 0 -0 -0 0 0 0
10 14 13 10 7 8 9 12 8 6 6 7 6 6 5 5 4 3 2 2 2 2 1 2 1 1 1 0 0 -0 -0 0 -0 -0 -0 0 1 1 1 0 1 0 0 0 0 0 0 1 1
13 13 12 12 9 8 10 10 8 7 7 7 6 6 5 5 5 4 3 2 2 2 2 1 1 1 1 1 0 0 0 0 0 0 0 0 1 0 -0 -0 0 0 1 1 0 1 0 1 1
10 12 12 10 8 9 11 10 9 7 7 7 7 6 6 5 4 4 4 2 2 2 3 2 2 1 1 1 2 1 2 1 1 1 0 0 0 0 0 0 0 0 1 1 1 1 1 1 1
11 12 12 10 8 10 11 11 9 8 8 7 7 6 6 5 4 4 4 4 3 3 3 2 2 1 1 1 1 1 1 1 0 0 1 0 0 0 0 0 1 0 1 1 1 1 1 1 1
11 12 12 12 10 9 11 12 11 8 7 7 6 6 5 5 5 4 4 4 4 4 3 2 2 1 1 1 1 1 1 1 1 1 1 0 0 -0 0 -0 0 0 0 1 1 1 1 3 1
14 9 9 11 12 15 11 17 12 10 9 8 7 7 6 5 4 4 4 4 3 3 3 2 2 1 1 1 1 2 2 3 2 1 1 1 0 0 0 0 0 1 1 1 1 1 1 2 3
10 8 9 10 12 14 14 15 13 11 11 10 8 7 6 5 5 4 4 3 3 2 2 2 2 2 1 1 1 1 2 1 1 1 1 1 1 0 0 -0 -0 0 1 1 1 1 1 1 2
7 9 10 11 12 17 14 15 14 12 11 9 7 6 6 5 5 4 3 3 3 2 2 2 2 2 1 1 1 1 3 3 3 2 2 1 1 1 1 0 0 0 0 0 0 0 1 1 1
10 12 16 17 18 18 15 16 13 10 9 8 8 7 6 5 5 5 4 4 3 3 2 2 2 2 1 1 1 2 3 2 2 3 2 2 1 1 1 0 0 0 0 0 0 0 1 1 1
11 12 15 19 19 17 14 16 12 8 7 7 7 6 6 6 5 5 4 4 3 3 2 2 2 2 2 2 1 2 1 1 2 2 1 1 1 1 0 0 0 -0 -0 0 -0 0 0 0 1
12 13 12 15 16 16 15 12 9 8 8 7 7 7 7 6 5 5 4 4 3 3 3 2 2 2 2 1 2 2 1 2 3 2 1 1 0 0 1 1 0 0 0 0 0 0 1 1 0
11 10 14 14 19 20 16 15 14 11 10 8 8 8 7 6 5 5 4 4 3 3 2 2 2 2 2 2 2 1 2 3 2 2 1 1 1 1 1 1 1 1 1 1 1 1 1 1 0
11 12 12 13 15 17 18 15 10 10 9 9 8 7 7 6 5 5 5 3 3 3 3 3 3 3 3 2 2 2 2 1 1 2 1 1 1 1 1 1 1 1 1 1 1 1 1 1 1
11 11 12 14 16 15 15 14 9 8 8 8 8 7 6 5 5 5 4 4 4 3 3 3 3 3 3 3 2 2 2 1 1 1 1 1 1 1 1 1 1 1 1 1 1 1 1 1 1